Погода в Кеведо

Эквадор     1°01′32″S   79°28′12″W
темп.,
°C
ветер,
м/с
пор.,
м/с
влажн.,
%
обл.,
%
осадки,
мм/ч
давл.,
гПа
погр.,
м
9 мая, вс
вс901:00+24зсз119389 0.6 101127
04:00+23юз2396100 0.4 1010173
07:00+22юз2496100 1.3 1011238
10:00+23юз2291100 0.4 1013269
13:00+23св118896 0.4 1011267
16:00+26в218176 0.0 1008473
19:00+23всв119060 0.0 101011
22:00+23с229378 0.0 101127
10 мая, пн
пн1001:00+22ссз1195100 0.0 101028
04:00+22сз009493 0.1 101017
07:00+23ююз129397 0.2 1010128
10:00+24ююз338797 0.0 1012426
13:00+27юз327597 0.1 1009848
16:00+28юз337397 0.3 1008867
19:00+24зюз119155 3.1 101030
22:00+24ссз1194100 1.7 101241
11 мая, вт
вт1101:00+23ююз2595100 3.0 1011254
04:00+22ююз3695100 0.8 1010320
07:00+21ююз369479 0.9 1012340
10:00+25ююз337863 0.0 1013725
13:00+27ююз336997 0.1 10101064
16:00+28юз226985 0.1 10081084
19:00+25юв227995 0.1 100935
22:00+24св118599 0.0 101114
12 мая, ср
ср1201:00+23ююз228966 0.1 101154
04:00+22ююз239247 0.0 1010131
07:00+22юз239161 0.0 1011167
10:00+26ю117767 0.0 1012605
13:00+30зюз116135 0.0 10091190
16:00+30з226188 0.1 10071188
19:00+26ю117968 0.6 100935
22:00+24с118884 0.1 101129
13 мая, чт
чт1301:00+24з129198 0.6 101163
04:00+23юз2492100 0.4 1011199
07:00+23юз2491100 0.6 1012235
10:00+26ююз227855 0.0 1013625
13:00+28ююз226989 0.1 1011995
16:00+29зюз226649 0.1 1008956
19:00+24з118833 1.9 101028
22:00+24зсз019497 2.9 101259